Location: Seminole
(32.7190°N, 102.6440°W)
Time: 13:49:27
(UTC-06:00)

Meteor 2-10 - Visible Passes

Search period start: 21 January 2017 00:00
Search period end: 31 January 2017 00:00
Orbit: 737 x 870 km, 81.2° (Epoch: 20 January)

Date Brightness Start Highest point End Pass type
(mag) Time Alt. Az. Time Alt. Az. Time Alt. Az.
21 Jan 7.3 06:40:40 10° ESE 06:42:13 11° E 06:43:45 10° ENE visible
21 Jan 4.0 18:55:41 10° N 19:00:46 62° E 19:06:00 10° SSE visible
21 Jan 7.2 20:40:46 10° WNW 20:42:05 11° W 20:43:25 10° W visible
22 Jan 6.8 20:12:53 10° NW 20:16:15 18° W 20:19:41 10° SW visible
23 Jan 6.2 19:46:03 10° NW 19:50:22 27° W 19:54:47 10° SSW visible
24 Jan 5.8 07:00:52 10° SSE 07:05:34 36° E 07:10:11 10° NNE visible
24 Jan 5.4 19:19:35 10° NNW 19:24:26 42° W 19:29:27 10° SSW visible
25 Jan 6.5 06:35:37 10° SE 06:39:39 23° E 06:43:38 10° NE visible
25 Jan 4.6 18:53:20 10° NNW 18:58:28 66° W 19:03:47 10° S visible
26 Jan 7.0 06:10:56 10° ESE 06:13:47 15° E 06:16:36 10° NE visible
27 Jan 7.2 19:45:20 10° WNW 19:47:51 14° W 19:50:25 10° WSW visible
28 Jan 4.2 06:58:03 10° S 07:03:10 76° E 07:08:13 10° NNE visible
28 Jan 6.8 19:18:06 10° NW 19:22:00 21° W 19:25:59 10° SW visible
29 Jan 5.0 06:32:18 10° SSE 06:37:12 48° E 06:42:01 10° NNE visible
29 Jan 6.1 18:51:28 10° NNW 18:56:06 32° W 19:00:53 10° SSW visible
30 Jan 5.9 06:06:50 10° SSE 06:11:16 30° E 06:15:38 10° NNE visible
